Home   Weather   Feira de Santana   Past weeks

Flag for Brazil Past Weather in Feira de Santana, Bahia, Brazil — Yesterday and Last 2 Weeks

Now
79 °F

Clear.


Feels Like: 81 °F
Forecast: N/A
Wind: 13 mph from Northeast

Location: Salvador Aeroporto

Current Time: Dec 10, 2016 at 7:42:33 pm

Latest Report: Dec 10, 2016 at 7:00 pm


Visibility: 10 mi

Pressure: 29.86 "Hg

Humidity: 74%

Dew Point: 70 °F

Location of Feira de SantanaLocation

Past Weather in Feira de Santana — Graph

°F

Feira de Santana Temperature Yesterday

Maximum temperature yesterday: 86 °F (at 11:00 am)
Minimum temperature yesterday: 77 °F (at 2:00 am)
Average temperature yesterday: 81 °F

High & Low Weather Summary for the Past Weeks

 TemperatureHumidityPressure
High88 °F (Dec 4, 11:00 am)94% (Nov 28, 4:00 am)30.01 "Hg (Nov 28, 4:00 am)
Low72 °F (Nov 27, 4:00 am)58% (Nov 26, 11:00 am)29.80 "Hg (Dec 4, 3:00 pm)
Average80 °F75%29.91 "Hg
* Reported Nov 25 6:00 pm — Dec 10 6:00 pm, Feira de Santana, Weather by CustomWeather, © 2016

Note: Actual official high and low records may vary slightly from our data, if they occured in-between our weather recording intervals... More about our weather records

Advertising

Feira de Santana Weather History for the Previous 24 Hours

Scroll right to see more
 ConditionsComfort  
Time TempWeatherWind HumidityBarometerVisibility
6:00 pm
Sat, Dec 10
79 °FClear.13 mph79%29.86 "Hg10 mi
5:00 pm81 °FSunny.16 mph74%29.83 "Hg10 mi
4:00 pm82 °FSunny.17 mph66%29.83 "Hg10 mi
3:00 pm84 °FSunny.16 mph66%29.86 "Hg10 mi
2:00 pm84 °FSunny.17 mph66%29.89 "Hg10 mi
1:00 pm84 °FPassing clouds.18 mph66%29.89 "HgN/A
12:00 pm84 °FPassing clouds.17 mph62%29.92 "HgN/A
11:00 am84 °FScattered clouds.17 mph66%29.92 "HgN/A
10:00 am84 °FScattered clouds.16 mph66%29.95 "HgN/A
9:00 am84 °FScattered clouds.15 mph62%29.92 "HgN/A
8:00 am82 °FScattered clouds.13 mph66%29.92 "HgN/A
7:00 am79 °FScattered clouds.5 mph74%29.92 "HgN/A
6:00 am77 °FScattered clouds.2 mph79%29.92 "HgN/A
5:00 am73 °FScattered clouds.2 mph89%29.89 "HgN/A
4:00 am75 °FPassing clouds.3 mph83%29.86 "HgN/A
3:00 am77 °FPassing clouds.6 mph79%29.86 "HgN/A
2:00 am77 °FPassing clouds.9 mph79%29.86 "HgN/A
1:00 am77 °FPassing clouds.9 mph79%29.86 "HgN/A
12:00 am77 °FPassing clouds.10 mph79%29.89 "HgN/A
11:00 pm
Fri, Dec 9
79 °FPassing clouds.9 mph74%29.92 "HgN/A
10:00 pm79 °FPassing clouds.10 mph74%29.92 "HgN/A
9:00 pm79 °FPassing clouds.13 mph79%29.92 "HgN/A
8:00 pm79 °FPassing clouds.12 mph74%29.89 "HgN/A
7:00 pm79 °FClear.14 mph74%29.86 "Hg10 mi
Weather by CustomWeather, © 2016

See weather overviewHow to use our weather pages